KB3UMW-13 Weather Reports


Display with metric or nautical units.
time (UTC)temp
F
wind
direction
speed
MPH
gust
MPH
rain 1hr
in
rain 24hr
in
rain mn
in
humidity
%
barometer
mb
20260502151947 45 140 5.0 8.0 0.00 0.00 0.00 67 1013.8
20260502151444 46 38 0.0 8.0 0.00 0.00 0.00 71 1014.0
20260502150941 45 89 6.0 10.0 0.00 0.00 0.00 68 1013.8
20260502150438 45 130 8.0 14.0 0.00 0.00 0.00 61 1013.8
20260502130323 37 127 0.0 5.0 0.00 0.00 0.00 92 1013.4
20260502123809 36 118 3.0 4.0 0.00 0.00 0.00 94 1013.5
20260502123306 36 135 3.0 4.0 0.00 0.00 0.00 94 1013.7
20260502122802 36 97 2.0 3.0 0.00 0.00 0.00 95 1013.7
20260502122259 36 136 3.0 5.0 0.00 0.00 0.00 95 1013.7
20260502121757 35 111 2.0 5.0 0.00 0.00 0.00 95 1013.7
20260502121254 35 57 2.0 3.0 0.00 0.00 0.00 94 1013.9
20260502120751 36 157 4.0 5.0 0.00 0.00 0.00 95 1013.8
20260502120248 36 59 2.0 4.0 0.00 0.00 0.00 95 1013.9
20260502115746 36 142 3.0 3.0 0.00 0.00 0.00 95 1013.9
20260502115243 36 77 0.0 4.0 0.00 0.00 0.00 95 1013.7
20260502114738 36 170 0.0 7.0 0.00 0.00 0.00 95 1013.8
20260502114235 36 79 2.0 4.0 0.00 0.00 0.00 96 1013.9
20260502113732 35 29 3.0 4.0 0.00 0.00 0.00 95 1013.8
20260502113230 35 86 0.0 4.0 0.00 0.00 0.00 95 1014.0
20260502112728 35 34 3.0 3.0 0.00 0.00 0.00 94 1013.9
20260502112226 36 99 0.0 3.0 0.00 0.00 0.00 96 1014.0
20260502111722 35 102 2.0 2.0 0.00 0.00 0.00 95 1014.1
20260502111220 35 156 0.0 3.0 0.00 0.00 0.00 96 1014.2
20260502110717 35 89 0.0 2.0 0.00 0.00 0.00 95 1014.0
20260502110215 35 134 2.0 3.0 0.00 0.00 0.00 96 1014.0
20260502105713 35 97 0.0 2.0 0.00 0.00 0.00 95 1014.2
20260502105209 35 125 1.0 3.0 0.00 0.00 0.00 95 1013.7
20260502104706 34 78 1.0 2.0 0.00 0.00 0.00 95 1014.1
20260502104204 34 82 2.0 2.0 0.00 0.00 0.00 94 1014.0
20260502103701 34 67 0.0 3.0 0.00 0.00 0.00 95 1014.2
20260502103159 34 124 1.0 2.0 0.00 0.00 0.00 95 1014.1
20260502102655 34 76 0.0 1.0 0.00 0.00 0.00 94 1014.0
20260502102152 34 63 0.0 2.0 0.00 0.00 0.00 94 1014.1
20260502101650 34 108 1.0 2.0 0.00 0.00 0.00 94 1014.1
20260502101148 34 113 0.0 2.0 0.00 0.00 0.00 93 1014.0
20260502100647 35 135 0.0 2.0 0.00 0.00 0.00 94 1014.0
20260502100144 34 66 0.0 2.0 0.00 0.00 0.00 93 1013.8
20260502091118 34 88 1.0 2.0 0.00 0.00 0.00 94 1014.0
20260502090616 34 35 0.0 1.0 0.00 0.00 0.00 94 1014.1
20260502090113 34 32 0.0 2.0 0.00 0.00 0.00 93 1013.9
20260502071510 34 81 1.0 3.0 0.00 0.00 0.00 94 1013.8
20260502071008 35 344 0.0 3.0 0.00 0.00 0.00 94 1013.8
20260502070506 35 41 1.0 4.0 0.00 0.00 0.00 94 1013.9
20260502070004 35 4 2.0 3.0 0.00 0.00 0.00 94 1014.0
20260502065502 35 43 0.0 2.0 0.00 0.00 0.00 94 1013.7
20260502065000 36 55 0.0 2.0 0.00 0.00 0.00 95 1013.7
20260502064458 36 34 0.0 3.0 0.00 0.00 0.00 95 1013.8
20260502063954 36 140 2.0 8.0 0.00 0.00 0.00 95 1013.9
20260502063452 36 109 0.0 3.0 0.00 0.00 0.00 95 1014.1
20260502062950 36 25 0.0 3.0 0.00 0.00 0.00 95 1013.8
20260502062447 36 43 1.0 6.0 0.00 0.00 0.00 94 1014.0
20260502061945 36 13 0.0 2.0 0.00 0.00 0.00 95 1014.0
20260502061443 36 39 2.0 3.0 0.00 0.00 0.00 94 1013.9
20260502060939 36 115 2.0 3.0 0.00 0.00 0.00 94 1013.9
20260502060434 36 345 1.0 5.0 0.00 0.00 0.00 94 1014.2
20260502055931 36 103 0.0 3.0 0.00 0.00 0.00 95 1014.0
20260502055429 36 139 3.0 3.0 0.00 0.00 0.00 95 1014.2
20260502054929 37 93 0.0 2.0 0.00 0.00 0.00 95 1014.1
20260502054426 37 108 1.0 6.0 0.00 0.00 0.00 94 1014.0
20260502053923 37 172 0.0 4.0 0.00 0.00 0.00 96 1014.0
20260502053420 38 142 2.0 3.0 0.00 0.00 0.00 95 1014.0
20260502052918 38 64 0.0 3.0 0.00 0.00 0.00 95 1014.0
20260502052416 38 30 0.0 3.0 0.00 0.00 0.00 95 1014.1
20260502051913 38 145 2.0 3.0 0.00 0.00 0.00 96 1014.0
20260502051412 38 141 4.0 5.0 0.00 0.00 0.00 96 1014.1
20260502050908 38 143 1.0 5.0 0.00 0.00 0.00 96 1014.1
20260502050405 38 150 4.0 5.0 0.00 0.00 0.00 95 1014.0
20260502045902 38 130 2.0 3.0 0.00 0.00 0.00 95 1013.8
20260502045359 38 105 3.0 3.0 0.00 0.00 0.00 95 1013.8
20260502044855 38 145 3.0 7.0 0.00 0.00 0.00 95 1013.8
20260502044346 38 62 2.0 5.0 0.00 0.00 0.00 96 1013.9
20260502043843 38 119 1.0 3.0 0.00 0.00 0.00 95 1013.5
20260502043341 38 92 2.0 3.0 0.00 0.00 0.00 95 1013.5
20260502042840 38 124 2.0 2.0 0.00 0.00 0.00 95 1013.7
20260502042338 38 148 1.0 3.0 0.00 0.00 0.00 95 1013.7
20260502041835 38 131 2.0 3.0 0.00 0.00 0.00 95 1013.8
20260502041332 38 133 2.0 3.0 0.00 0.00 0.00 94 1013.7
20260502040829 39 40 0.0 3.0 0.00 0.00 0.00 94 1013.4
20260502040326 39 20 2.0 14.0 0.00 0.00 0.00 95 1013.7
20260502035822 39 58 1.0 5.0 0.00 0.07 0.07 95 1013.8
20260502035319 39 32 1.0 3.0 0.00 0.07 0.07 96 1013.5
20260502034817 39 105 2.0 3.0 0.00 0.07 0.07 95 1013.8
20260502034315 39 53 3.0 5.0 0.00 0.07 0.07 96 1013.8
20260502033813 39 18 2.0 3.0 0.00 0.07 0.07 95 1013.5
20260502033310 39 70 0.0 5.0 0.00 0.07 0.07 95 1013.9
20260502032806 40 15 0.0 6.0 0.00 0.07 0.07 95 1013.4
20260502032305 40 66 2.0 3.0 0.00 0.07 0.07 96 1013.8
20260502031800 40 122 2.0 3.0 0.00 0.07 0.07 96 1013.8
20260502031258 40 124 2.0 5.0 0.00 0.07 0.07 95 1013.5
20260502030756 41 87 1.0 3.0 0.02 0.07 0.07 97 1013.3
20260502030254 41 18 1.0 3.0 0.00 0.07 0.07 97 1013.0
20260502025751 41 150 0.0 3.0 0.00 0.07 0.07 98 1013.2
20260502025249 42 143 5.0 6.0 0.00 0.07 0.07 98 1013.3
20260502024746 42 13 1.0 4.0 0.00 0.07 0.07 98 1013.2
20260502024244 41 126 2.0 6.0 0.02 0.07 0.07 98 1013.5
20260502023742 41 73 0.0 2.0 0.02 0.07 0.07 97 1013.2
20260502023239 42 42 3.0 7.0 0.00 0.07 0.07 98 1013.3
20260502022737 42 139 3.0 5.0 0.02 0.07 0.07 97 1013.2
20260502022233 42 143 2.0 7.0 0.00 0.06 0.06 96 1013.3
20260502021730 42 106 1.0 6.0 0.00 0.06 0.06 97 1013.4
20260502021227 42 152 2.0 4.0 0.00 0.06 0.06 97 1013.1
20260502020724 42 139 2.0 5.0 0.00 0.06 0.06 97 1013.3
20260502020221 42 110 1.0 4.0 0.00 0.06 0.06 97 1013.2
20260502015720 42 105 0.0 3.0 0.02 0.06 0.06 96 1013.2
20260502015215 42 144 1.0 5.0 0.02 0.06 0.06 97 1013.3
20260502014713 42 91 3.0 5.0 0.00 0.06 0.06 96 1013.2
20260502014210 42 127 0.0 6.0 0.02 0.06 0.06 97 1013.3
20260502013706 42 125 2.0 3.0 0.02 0.06 0.06 97 1013.2
20260502013201 42 156 2.0 5.0 0.00 0.06 0.06 96 1012.8
20260502012659 42 126 2.0 6.0 0.00 0.06 0.06 96 1012.7
20260502012157 42 93 1.0 4.0 0.00 0.06 0.06 96 1012.9
20260502011653 42 113 0.0 5.0 0.00 0.06 0.06 96 1013.1
20260502011149 42 155 2.0 5.0 0.00 0.06 0.06 96 1012.9
20260502010647 42 146 2.0 4.0 0.00 0.06 0.06 96 1012.7
20260502010143 42 110 2.0 5.0 0.02 0.06 0.06 96 1012.7
20260502005641 42 138 1.0 4.0 0.00 0.05 0.05 96 1012.6
20260502005138 42 138 2.0 3.0 0.07 0.05 0.05 96 1012.4
20260502004634 42 130 3.0 5.0 0.07 0.05 0.05 95 1012.4
20260502004131 42 102 0.0 3.0 0.00 0.04 0.04 94 1012.5
20260502003629 42 75 3.0 3.0 0.02 0.04 0.04 92 1012.1
20260502003126 42 134 2.0 3.0 0.02 0.04 0.04 93 1012.0
20260502002621 42 98 2.0 6.0 0.02 0.04 0.04 91 1012.0
20260502002119 43 111 2.0 3.0 0.05 0.04 0.04 92 1011.8
20260502001617 43 15 3.0 4.0 0.09 0.03 0.03 90 1011.8
20260502001114 44 22 3.0 4.0 0.07 0.02 0.02 91 1011.8
20260502000612 44 127 4.0 5.0 0.05 0.02 0.02 89 1011.8
20260502000109 45 82 3.0 4.0 0.00 0.01 0.01 90 1011.7
20260501235605 45 138 2.0 4.0 0.02 0.01 0.01 89 1011.8
20260501235101 46 28 0.0 4.0 0.02 0.01 0.01 86 1011.5
20260501234556 46 95 1.0 3.0 0.00 0.00 0.00 86 1011.8
20260501234055 46 48 0.0 3.0 0.00 0.00 0.00 84 1011.7
20260501233553 46 10 2.0 3.0 0.00 0.00 0.00 83 1011.4
20260501233049 47 124 1.0 4.0 0.00 0.00 0.00 83 1011.4
20260501232545 47 72 1.0 6.0 0.00 0.00 0.00 81 1011.2
20260501232043 48 113 2.0 4.0 0.00 0.00 0.00 78 1011.4
20260501231540 48 50 2.0 10.0 0.00 0.00 0.00 75 1011.3
20260501231038 48 36 0.0 3.0 0.00 0.00 0.00 74 1011.1
20260501230537 48 61 0.0 4.0 0.00 0.00 0.00 72 1011.0
20260501230035 49 67 3.0 5.0 0.00 0.00 0.00 71 1011.1
20260501225532 49 97 5.0 6.0 0.00 0.00 0.00 69 1011.2
20260501225028 50 93 3.0 5.0 0.00 0.00 0.00 69 1011.1
20260501224526 50 20 3.0 5.0 0.00 0.00 0.00 66 1011.0
20260501224022 51 145 3.0 4.0 0.00 0.00 0.00 64 1011.0
20260501223519 52 32 2.0 4.0 0.00 0.00 0.00 60 1010.6
20260501223015 53 143 1.0 6.0 0.00 0.00 0.00 58 1010.6
20260501222511 53 98 0.0 3.0 0.00 0.00 0.00 57 1010.5
20260501222008 53 118 2.0 5.0 0.00 0.00 0.00 57 1010.8
20260501221505 53 138 0.0 5.0 0.00 0.00 0.00 60 1010.6
20260501221003 53 153 2.0 3.0 0.00 0.00 0.00 55 1010.7
20260501220500 54 127 0.0 3.0 0.00 0.00 0.00 53 1010.4
20260501215956 54 106 1.0 3.0 0.00 0.00 0.00 51 1010.2
20260501215453 55 116 0.0 6.0 0.00 0.00 0.00 47 1010.3
20260501214948 54 144 3.0 6.0 0.00 0.00 0.00 50 1010.3
20260501214444 54 137 3.0 9.0 0.00 0.00 0.00 48 1010.1
20260501213939 55 38 3.0 5.0 0.00 0.00 0.00 45 1010.1
20260501213437 55 337 1.0 3.0 0.00 0.00 0.00 45 1010.0
20260501212932 55 93 2.0 6.0 0.00 0.00 0.00 44 1010.2
20260501212429 56 33 0.0 5.0 0.00 0.00 0.00 46 1010.1
20260501211926 56 164 3.0 10.0 0.00 0.00 0.00 44 1009.8
20260501211424 56 144 5.0 10.0 0.00 0.00 0.00 44 1009.8
20260501210921 57 79 2.0 5.0 0.00 0.00 0.00 46 1009.8
20260501210418 56 143 4.0 6.0 0.00 0.00 0.00 50 1009.8
20260501205914 56 172 3.0 10.0 0.00 0.00 0.00 41 1009.4
20260501205411 57 149 4.0 10.0 0.00 0.00 0.00 44 1009.8
20260501204908 57 146 4.0 7.0 0.00 0.00 0.00 44 1009.5
20260501204404 57 123 3.0 10.0 0.00 0.00 0.00 47 1009.7
20260501203900 58 103 1.0 7.0 0.00 0.00 0.00 48 1009.7
20260501203358 58 351 0.0 8.0 0.00 0.00 0.00 44 1009.3
20260501202855 57 144 4.0 12.0 0.00 0.00 0.00 45 1009.7
20260501202352 58 356 4.0 7.0 0.00 0.00 0.00 46 1009.4
20260501201848 59 112 3.0 9.0 0.00 0.00 0.00 46 1010.1
20260501201345 58 122 2.0 5.0 0.00 0.00 0.00 48 1009.9
20260501200842 57 131 2.0 7.0 0.00 0.00 0.00 45 1010.0
20260501200339 59 141 5.0 7.0 0.00 0.00 0.00 44 1010.2
20260501195837 58 8 0.0 6.0 0.00 0.00 0.00 49 1010.1
20260501195332 57 137 8.0 8.0 0.00 0.00 0.00 49 1010.1
20260501194828 58 59 3.0 5.0 0.00 0.00 0.00 46 1010.1
20260501194325 58 21 2.0 7.0 0.00 0.00 0.00 52 1010.0
20260501193821 58 133 0.0 7.0 0.00 0.00 0.00 51 1010.1
20260501193320 59 55 1.0 4.0 0.00 0.00 0.00 44 1010.0
20260501192817 61 297 0.0 5.0 0.00 0.00 0.00 41 1010.2
20260501192314 60 354 2.0 5.0 0.00 0.00 0.00 42 1010.3
20260501191811 61 112 7.0 8.0 0.00 0.00 0.00 41 1010.1
20260501191308 58 170 1.0 6.0 0.00 0.00 0.00 46 1010.0
20260501190805 58 68 1.0 9.0 0.00 0.00 0.00 56 1010.0
20260501190301 58 180 2.0 5.0 0.00 0.00 0.00 51 1010.3
20260501185756 58 61 2.0 5.0 0.00 0.00 0.00 53 1010.3
20260501185252 58 347 3.0 6.0 0.00 0.00 0.00 47 1010.3
20260501184748 57 155 3.0 10.0 0.00 0.00 0.00 42 1010.4
20260501184244 57 138 3.0 11.0 0.00 0.00 0.00 50 1010.3
20260501183740 57 141 7.0 7.0 0.00 0.00 0.00 48 1010.3
20260501183237 57 163 4.0 5.0 0.00 0.00 0.00 45 1010.2
20260501182733 56 87 1.0 2.0 0.00 0.00 0.00 47 1010.5
20260501182231 56 124 0.0 4.0 0.00 0.00 0.00 51 1010.7
20260501181727 56 301 5.0 9.0 0.00 0.00 0.00 47 1010.7
20260501181225 56 147 3.0 7.0 0.00 0.00 0.00 46 1010.8
20260501180723 55 157 2.0 7.0 0.00 0.00 0.00 44 1010.6
20260501180218 55 332 3.0 5.0 0.00 0.00 0.00 47 1010.8
20260501175715 55 154 3.0 5.0 0.00 0.00 0.00 50 1010.8
20260501175212 55 146 4.0 10.0 0.00 0.00 0.00 43 1011.0
20260501174708 56 100 2.0 6.0 0.00 0.00 0.00 44 1011.1
20260501174206 56 129 4.0 11.0 0.00 0.00 0.00 47 1011.0
20260501173704 56 149 5.0 9.0 0.00 0.00 0.00 48 1010.8
20260501173200 57 173 3.0 7.0 0.00 0.00 0.00 41 1011.2
20260501172657 57 80 2.0 7.0 0.00 0.00 0.00 48 1011.3
20260501172152 56 140 3.0 5.0 0.00 0.00 0.00 48 1011.1
20260501171648 57 151 2.0 5.0 0.00 0.00 0.00 47 1011.2
20260501171145 56 129 0.0 3.0 0.00 0.00 0.00 58 1011.2
20260501170642 55 170 2.0 7.0 0.00 0.00 0.00 55 1011.3
20260501170138 55 135 0.0 4.0 0.00 0.00 0.00 49 1011.4
20260501165636 55 113 3.0 5.0 0.00 0.00 0.00 51 1011.4
20260501165133 54 92 3.0 7.0 0.00 0.00 0.00 46 1011.5
20260501164632 54 98 0.0 3.0 0.00 0.00 0.00 50 1011.5
20260501164128 54 96 2.0 6.0 0.00 0.00 0.00 53 1011.6
20260501163624 54 71 2.0 4.0 0.00 0.00 0.00 56 1011.7
20260501163121 55 131 1.0 5.0 0.00 0.00 0.00 57 1012.0
20260501162617 54 162 2.0 5.0 0.00 0.00 0.00 56 1012.0
20260501162114 54 130 2.0 6.0 0.00 0.00 0.00 57 1012.0
20260501161612 55 143 3.0 4.0 0.00 0.00 0.00 53 1012.0
20260501161103 56 136 2.0 4.0 0.00 0.00 0.00 55 1012.1
20260501160600 56 133 1.0 4.0 0.00 0.00 0.00 49 1012.0
20260501160056 55 168 4.0 5.0 0.00 0.00 0.00 52 1012.1